Weather History for Sitka, AK

Change the Weather History Date:

Tuesday, January 22, 2013

  Actual Average Record
Temperature  
Mean Temperature 42 °F -  
Max Temperature 46 °F 40 °F 54 °F (2014)
Min Temperature 37 °F 32 °F 5 °F (1952)
Degree Days  
Heating Degree Days 24    
Moisture  
Dew Point 35 °F    
Average Humidity 75    
Maximum Humidity 100    
Minimum Humidity 58    
Precipitation  
Precipitation 0.00 in - - ()
Sea Level Pressure  
Sea Level Pressure 29.62 in    
Wind  
Wind Speed 8 mph (ESE)    
Max Wind Speed 21 mph    
Max Gust Speed 25 mph    
Visibility 10 miles    
Events      
Averages and records for this station are not official NWS values.
T = Trace of Precipitation, MM = Missing Value Source: NWS Daily Summary

Daily Weather History Graph

Daily Weather History Graph

Search for Another Location

Airport:

Trip Planner

Search our weather history database for the weather conditions in past years. The results will help you decide how hot, cold, wet, or windy it might be!

Date:

Astronomy

Jan. 22, 2013 Rise Set
Actual Time 8:18 AM AKST 4:08 PM AKST
Civil Twilight 7:33 AM AKST 4:53 PM AKST
Nautical Twilight 6:45 AM AKST 5:41 PM AKST
Astronomical Twilight 6:00 AM AKST 6:26 PM AKST
Moon 12:27 PM AKST (1/22) 4:56 AM AKST (1/22)
Length of Visible Light 9h 20m
Length of Day
7h 50m
Waxing Gibbous, 84% of the Moon is Illuminated
Jan 22
Waxing Gibbous
Jan 26
Full
Feb 3
Last Quarter
Feb 9
New
Feb 17
First Quarter

Hourly Weather History & Observations

Time (AKST) Temp. Windchill Dew Point Humidity Pressure Visibility Wind Dir Wind Speed Gust Speed Precip Events Conditions
12:53 AM 39.9 °F 36.7 °F 39.0 °F 97% 29.77 in 10.0 mi WSW 4.6 mph - N/A   Clear
1:53 AM 37.9 °F - 37.9 °F 100% 29.74 in 10.0 mi Calm Calm - N/A   Clear
2:53 AM 39.0 °F - 37.9 °F 96% 29.73 in 10.0 mi Calm Calm - N/A   Clear
3:53 AM 37.9 °F - 37.9 °F 100% 29.70 in 10.0 mi Calm Calm - N/A   Clear
4:53 AM 39.0 °F 34.8 °F 37.9 °F 96% 29.67 in 10.0 mi NNW 5.8 mph - N/A   Overcast
5:53 AM 39.0 °F 32.8 °F 37.9 °F 96% 29.66 in 10.0 mi WNW 9.2 mph - N/A   Overcast
6:53 AM 39.9 °F 37.8 °F 37.9 °F 93% 29.66 in 10.0 mi WNW 3.5 mph - N/A   Mostly Cloudy
7:53 AM 39.0 °F - 37.9 °F 96% 29.65 in 10.0 mi Calm Calm - N/A   Overcast
8:53 AM 46.0 °F 39.3 °F 32.0 °F 58% 29.64 in 10.0 mi East 16.1 mph - N/A   Overcast
9:53 AM 46.0 °F 40.2 °F 33.1 °F 61% 29.63 in 10.0 mi ESE 12.7 mph - N/A   Overcast
10:53 AM 46.0 °F 39.9 °F 36.0 °F 68% 29.62 in 10.0 mi East 13.8 mph - 0.00 in   Overcast
11:53 AM 46.9 °F - 35.1 °F 63% 29.61 in 10.0 mi ESE 16.1 mph 24.2 mph N/A   Mostly Cloudy
12:53 PM 46.0 °F 39.6 °F 35.1 °F 66% 29.60 in 10.0 mi ESE 15.0 mph - 0.00 in   Overcast
1:53 PM 46.9 °F - 35.1 °F 63% 29.58 in 10.0 mi East 16.1 mph 23.0 mph N/A   Overcast
2:53 PM 46.0 °F 39.6 °F 35.1 °F 66% 29.57 in 10.0 mi ESE 15.0 mph - 0.00 in   Overcast
3:53 PM 46.9 °F - 35.1 °F 63% 29.55 in 10.0 mi East 17.3 mph 25.3 mph 0.00 in   Mostly Cloudy
4:53 PM 46.0 °F 39.9 °F 34.0 °F 63% 29.56 in 10.0 mi ESE 13.8 mph - N/A   Overcast
5:53 PM 46.0 °F 40.2 °F 34.0 °F 63% 29.55 in 10.0 mi ESE 12.7 mph 20.7 mph N/A   Mostly Cloudy
6:53 PM 46.0 °F 39.3 °F 34.0 °F 63% 29.55 in 10.0 mi ESE 16.1 mph 21.9 mph N/A   Overcast
7:53 PM 46.0 °F 38.3 °F 34.0 °F 63% 29.54 in 10.0 mi ESE 20.7 mph 24.2 mph N/A   Mostly Cloudy
8:53 PM 45.0 °F 37.1 °F 34.0 °F 65% 29.54 in 10.0 mi ESE 19.6 mph - N/A   Overcast
9:53 PM 45.0 °F 38.2 °F 34.0 °F 65% 29.55 in 10.0 mi ESE 15.0 mph - N/A   Overcast
10:53 PM 45.0 °F 38.5 °F 34.0 °F 65% 29.55 in 10.0 mi ESE 13.8 mph - N/A   Overcast
11:53 PM 46.0 °F 39.3 °F 33.1 °F 61% 29.55 in 10.0 mi East 16.1 mph - N/A   Overcast